THEMIS E

Last updated on Aug. 14, 2020, 5:30 a.m. UTC

1 30798U 07004E   20226.63790910 -.00000205  00000-0  00000+0 0  9992
2 30798  12.5662  34.3681 8366291  53.4689 357.5260  0.87843703 47162
UTC
Height (km)
Latitude
Longitude
Inclination
Orbital Period
UTC large
Height (km)
Speed (km/s)
/
Latitude / Longitude
Inclination (degrees)
Orbital Period (minutes)
Azimuth
Elevation
Range (km)
Doppler Factor
iOS Compass Heading
iOS Angle

Next 30 passes for location: Hong Kong

Rise time Rise Azimuth (degrees) Set time Set Azimuth (degrees) Duration Max altitude (degrees)

No matching passes for this satellites